Year,Month,Day,Hour,Minute,Value (Times are PST for temperature in C)
2019,07,14,00,00,16.70
2019,07,14,00,01,16.70
2019,07,14,00,02,16.70
2019,07,14,00,03,16.70
2019,07,14,00,04,16.70
2019,07,14,00,05,16.70
2019,07,14,00,06,16.70
2019,07,14,00,07,16.70
2019,07,14,00,08,16.70
2019,07,14,00,09,16.70
2019,07,14,00,10,16.70
2019,07,14,00,11,16.70
2019,07,14,00,12,16.70
2019,07,14,00,13,16.70
2019,07,14,00,14,16.70
2019,07,14,00,15,16.60
2019,07,14,00,16,16.60
2019,07,14,00,17,16.60
2019,07,14,00,18,16.60
2019,07,14,00,19,16.60
2019,07,14,00,20,16.60
2019,07,14,00,21,16.60
2019,07,14,00,22,16.50
2019,07,14,00,23,16.40
2019,07,14,00,24,16.40
2019,07,14,00,25,16.40
2019,07,14,00,26,16.40
2019,07,14,00,27,16.40
2019,07,14,00,28,16.40
2019,07,14,00,29,16.40
2019,07,14,00,30,16.40
2019,07,14,00,31,16.40
2019,07,14,00,32,16.40
2019,07,14,00,33,16.30
2019,07,14,00,34,16.30
2019,07,14,00,35,16.30
2019,07,14,00,36,16.30
2019,07,14,00,37,16.30
2019,07,14,00,38,16.30
2019,07,14,00,39,16.30
2019,07,14,00,40,16.20
2019,07,14,00,41,16.20
2019,07,14,00,42,16.20
2019,07,14,00,43,16.20
2019,07,14,00,44,16.20
2019,07,14,00,45,16.20
2019,07,14,00,46,16.20
2019,07,14,00,47,16.10
2019,07,14,00,48,16.10
2019,07,14,00,49,16.10
2019,07,14,00,50,16.10
2019,07,14,00,51,16.10
2019,07,14,00,52,16.10
2019,07,14,00,53,16.10
2019,07,14,00,54,16.10
2019,07,14,00,55,16.10
2019,07,14,00,56,16.10
2019,07,14,00,57,16.10
2019,07,14,00,58,16.10
2019,07,14,00,59,16.10
2019,07,14,01,00,16.00
2019,07,14,01,01,15.90
2019,07,14,01,02,15.90
2019,07,14,01,03,15.90
2019,07,14,01,04,15.90
2019,07,14,01,05,15.90
2019,07,14,01,06,15.90
2019,07,14,01,07,15.90
2019,07,14,01,08,15.80
2019,07,14,01,09,15.80
2019,07,14,01,10,15.80
2019,07,14,01,11,15.80
2019,07,14,01,12,15.80
2019,07,14,01,13,15.80
2019,07,14,01,14,15.80
2019,07,14,01,15,15.80
2019,07,14,01,16,15.80
2019,07,14,01,17,15.80
2019,07,14,01,18,15.80
2019,07,14,01,19,15.80
2019,07,14,01,20,15.70
2019,07,14,01,21,15.70
2019,07,14,01,22,15.70
2019,07,14,01,23,15.70
2019,07,14,01,24,15.70
2019,07,14,01,25,15.70
2019,07,14,01,26,15.60
2019,07,14,01,27,15.60
2019,07,14,01,28,15.60
2019,07,14,01,29,15.60
2019,07,14,01,30,15.60
2019,07,14,01,31,15.50
2019,07,14,01,32,15.50
2019,07,14,01,33,15.50
2019,07,14,01,34,15.50
2019,07,14,01,35,15.50
2019,07,14,01,36,15.50
2019,07,14,01,37,15.50
2019,07,14,01,38,15.50
2019,07,14,01,39,15.40
2019,07,14,01,40,15.40
2019,07,14,01,41,15.40
2019,07,14,01,42,15.40
2019,07,14,01,43,15.40
2019,07,14,01,44,15.40
2019,07,14,01,45,15.30
2019,07,14,01,46,15.30
2019,07,14,01,47,15.30
2019,07,14,01,48,15.30
2019,07,14,01,49,15.30
2019,07,14,01,50,15.30
2019,07,14,01,51,15.30
2019,07,14,01,52,15.30
2019,07,14,01,53,15.30
2019,07,14,01,54,15.30
2019,07,14,01,55,15.30
2019,07,14,01,56,15.30
2019,07,14,01,57,15.20
2019,07,14,01,58,15.20
2019,07,14,01,59,15.20
2019,07,14,02,00,15.20
2019,07,14,02,01,15.20
2019,07,14,02,02,15.20
2019,07,14,02,03,15.20
2019,07,14,02,04,15.20
2019,07,14,02,05,15.20
2019,07,14,02,06,15.20
2019,07,14,02,07,15.20
2019,07,14,02,08,15.20
2019,07,14,02,09,15.10
2019,07,14,02,10,15.10
2019,07,14,02,11,15.10
2019,07,14,02,12,15.10
2019,07,14,02,13,15.10
2019,07,14,02,14,15.10
2019,07,14,02,15,15.10
2019,07,14,02,16,15.10
2019,07,14,02,17,15.10
2019,07,14,02,18,15.10
2019,07,14,02,19,15.10
2019,07,14,02,20,15.10
2019,07,14,02,21,15.10
2019,07,14,02,22,15.10
2019,07,14,02,23,15.00
2019,07,14,02,24,15.00
2019,07,14,02,25,15.00
2019,07,14,02,26,15.00
2019,07,14,02,27,15.00
2019,07,14,02,28,15.00
2019,07,14,02,29,15.00
2019,07,14,02,30,15.00
2019,07,14,02,31,15.00
2019,07,14,02,32,14.90
2019,07,14,02,33,14.90
2019,07,14,02,34,14.90
2019,07,14,02,35,14.90
2019,07,14,02,36,14.90
2019,07,14,02,37,14.90
2019,07,14,02,38,14.90
2019,07,14,02,39,14.90
2019,07,14,02,40,14.90
2019,07,14,02,41,14.90
2019,07,14,02,42,14.90
2019,07,14,02,43,14.90
2019,07,14,02,44,14.90
2019,07,14,02,45,14.90
2019,07,14,02,46,14.80
2019,07,14,02,47,14.80
2019,07,14,02,48,14.80
2019,07,14,02,49,14.80
2019,07,14,02,50,14.80
2019,07,14,02,51,14.80
2019,07,14,02,52,14.80
2019,07,14,02,53,14.80
2019,07,14,02,54,14.80
2019,07,14,02,55,14.80
2019,07,14,02,56,14.80
2019,07,14,02,57,14.80
2019,07,14,02,58,14.80
2019,07,14,02,59,14.80
2019,07,14,03,00,14.80
2019,07,14,03,01,14.70
2019,07,14,03,02,14.70
2019,07,14,03,03,14.70
2019,07,14,03,04,14.70
2019,07,14,03,05,14.70
2019,07,14,03,06,14.70
2019,07,14,03,07,14.70
2019,07,14,03,08,14.70
2019,07,14,03,09,14.70
2019,07,14,03,10,14.70
2019,07,14,03,11,14.60
2019,07,14,03,12,14.60
2019,07,14,03,13,14.60
2019,07,14,03,14,14.60
2019,07,14,03,15,14.60
2019,07,14,03,16,14.60
2019,07,14,03,17,14.50
2019,07,14,03,18,14.50
2019,07,14,03,19,14.50
2019,07,14,03,20,14.50
2019,07,14,03,21,14.40
2019,07,14,03,22,14.40
2019,07,14,03,23,14.40
2019,07,14,03,24,14.40
2019,07,14,03,25,14.40
2019,07,14,03,26,14.30
2019,07,14,03,27,14.30
2019,07,14,03,28,14.30
2019,07,14,03,29,14.20
2019,07,14,03,30,14.20
2019,07,14,03,31,14.20
2019,07,14,03,32,14.20
2019,07,14,03,33,14.20
2019,07,14,03,34,14.20
2019,07,14,03,35,14.20
2019,07,14,03,36,14.20
2019,07,14,03,37,14.20
2019,07,14,03,38,14.20
2019,07,14,03,39,14.20
2019,07,14,03,40,14.20
2019,07,14,03,41,14.20
2019,07,14,03,42,14.20
2019,07,14,03,43,14.20
2019,07,14,03,44,14.20
2019,07,14,03,45,14.20
2019,07,14,03,46,14.20
2019,07,14,03,47,14.10
2019,07,14,03,48,14.10
2019,07,14,03,49,14.10
2019,07,14,03,50,14.10
2019,07,14,03,51,14.10
2019,07,14,03,52,14.10
2019,07,14,03,53,14.10
2019,07,14,03,54,14.00
2019,07,14,03,55,14.00
2019,07,14,03,56,14.00
2019,07,14,03,57,14.00
2019,07,14,03,58,13.90
2019,07,14,03,59,13.90
2019,07,14,04,00,13.90
2019,07,14,04,01,13.90
2019,07,14,04,02,13.90
2019,07,14,04,03,13.90
2019,07,14,04,04,13.90
2019,07,14,04,05,13.90
2019,07,14,04,06,13.90
2019,07,14,04,07,13.80
2019,07,14,04,08,13.80
2019,07,14,04,09,13.80
2019,07,14,04,10,13.80
2019,07,14,04,11,13.80
2019,07,14,04,12,13.80
2019,07,14,04,13,13.80
2019,07,14,04,14,13.80
2019,07,14,04,15,13.80
2019,07,14,04,16,13.80
2019,07,14,04,17,13.80
2019,07,14,04,18,13.80
2019,07,14,04,19,13.70
2019,07,14,04,20,13.70
2019,07,14,04,21,13.70
2019,07,14,04,22,13.70
2019,07,14,04,23,13.70
2019,07,14,04,24,13.70
2019,07,14,04,25,13.70
2019,07,14,04,26,13.70
2019,07,14,04,27,13.70
2019,07,14,04,28,13.70
2019,07,14,04,29,13.70
2019,07,14,04,30,13.70
2019,07,14,04,31,13.70
2019,07,14,04,32,13.70
2019,07,14,04,33,13.70
2019,07,14,04,34,13.70
2019,07,14,04,35,13.70
2019,07,14,04,36,13.70
2019,07,14,04,37,13.70
2019,07,14,04,38,13.70
2019,07,14,04,39,13.70
2019,07,14,04,40,13.70
2019,07,14,04,41,13.70
2019,07,14,04,42,13.70
2019,07,14,04,43,13.70
2019,07,14,04,44,13.70
2019,07,14,04,45,13.70
2019,07,14,04,46,13.70
2019,07,14,04,47,13.70
2019,07,14,04,48,13.70
2019,07,14,04,49,13.70
2019,07,14,04,50,13.70
2019,07,14,04,51,13.70
2019,07,14,04,52,13.70
2019,07,14,04,53,13.70
2019,07,14,04,54,13.70
2019,07,14,04,55,13.70
2019,07,14,04,56,13.70
2019,07,14,04,57,13.70
2019,07,14,04,58,13.70
2019,07,14,04,59,13.70
2019,07,14,05,00,13.70
2019,07,14,05,01,13.70
2019,07,14,05,02,13.70
2019,07,14,05,03,13.70
2019,07,14,05,04,13.70
2019,07,14,05,05,13.70
2019,07,14,05,06,13.70
2019,07,14,05,07,13.70
2019,07,14,05,08,13.70
2019,07,14,05,09,13.70
2019,07,14,05,10,13.70
2019,07,14,05,11,13.70
2019,07,14,05,12,13.70
2019,07,14,05,13,13.70
2019,07,14,05,14,13.70
2019,07,14,05,15,13.70
2019,07,14,05,16,13.80
2019,07,14,05,17,13.80
2019,07,14,05,18,13.80
2019,07,14,05,19,13.80
2019,07,14,05,20,13.80
2019,07,14,05,21,13.80
2019,07,14,05,22,13.80
2019,07,14,05,23,13.80
2019,07,14,05,24,13.80
2019,07,14,05,25,13.80
2019,07,14,05,26,13.80
2019,07,14,05,27,13.80
2019,07,14,05,28,13.80
2019,07,14,05,29,13.80
2019,07,14,05,30,13.70
2019,07,14,05,31,13.70
2019,07,14,05,32,13.70
2019,07,14,05,33,13.70
2019,07,14,05,34,13.70
2019,07,14,05,35,13.70
2019,07,14,05,36,13.70
2019,07,14,05,37,13.70
2019,07,14,05,38,13.70
2019,07,14,05,39,13.70
2019,07,14,05,40,13.70
2019,07,14,05,41,13.70
2019,07,14,05,42,13.70
2019,07,14,05,43,13.70
2019,07,14,05,44,13.70
2019,07,14,05,45,13.70
2019,07,14,05,46,13.70
2019,07,14,05,47,13.70
2019,07,14,05,48,13.70
2019,07,14,05,49,13.70
2019,07,14,05,50,13.70
2019,07,14,05,51,13.70
2019,07,14,05,52,13.70
2019,07,14,05,53,13.70
2019,07,14,05,54,13.70
2019,07,14,05,55,13.70
2019,07,14,05,56,13.70
2019,07,14,05,57,13.70
2019,07,14,05,58,13.70
2019,07,14,05,59,13.70
2019,07,14,06,00,13.70
2019,07,14,06,01,13.70
2019,07,14,06,02,13.70
2019,07,14,06,03,13.70
2019,07,14,06,04,13.70
2019,07,14,06,05,13.70
2019,07,14,06,06,13.70
2019,07,14,06,07,13.70
2019,07,14,06,08,13.70
2019,07,14,06,09,13.70
2019,07,14,06,10,13.70
2019,07,14,06,11,13.70
2019,07,14,06,12,13.70
2019,07,14,06,13,13.70
2019,07,14,06,14,13.80
2019,07,14,06,15,13.80
2019,07,14,06,16,13.80
2019,07,14,06,17,13.80
2019,07,14,06,18,13.80
2019,07,14,06,19,13.80
2019,07,14,06,20,13.80
2019,07,14,06,21,13.80
2019,07,14,06,22,13.80
2019,07,14,06,23,13.80
2019,07,14,06,24,13.80
2019,07,14,06,25,13.80
2019,07,14,06,26,13.80
2019,07,14,06,27,13.80
2019,07,14,06,28,13.90
2019,07,14,06,29,13.90
2019,07,14,06,30,13.90
2019,07,14,06,31,13.90
2019,07,14,06,32,13.90
2019,07,14,06,33,13.90
2019,07,14,06,34,13.90
2019,07,14,06,35,13.90
2019,07,14,06,36,14.00
2019,07,14,06,37,14.00
2019,07,14,06,38,14.00
2019,07,14,06,39,14.00
2019,07,14,06,40,14.00
2019,07,14,06,41,14.00
2019,07,14,06,42,14.00
2019,07,14,06,43,14.10
2019,07,14,06,44,14.10
2019,07,14,06,45,14.10
2019,07,14,06,46,14.10
2019,07,14,06,47,14.20
2019,07,14,06,48,14.20
2019,07,14,06,49,14.20
2019,07,14,06,50,14.20
2019,07,14,06,51,14.20
2019,07,14,06,52,14.20
2019,07,14,06,53,14.20
2019,07,14,06,54,14.30
2019,07,14,06,55,14.30
2019,07,14,06,56,14.30
2019,07,14,06,57,14.40
2019,07,14,06,58,14.40
2019,07,14,06,59,14.50
2019,07,14,07,00,14.50
2019,07,14,07,01,14.60
2019,07,14,07,02,14.60
2019,07,14,07,03,14.70
2019,07,14,07,04,14.80
2019,07,14,07,05,14.80
2019,07,14,07,06,14.80
2019,07,14,07,07,14.90
2019,07,14,07,08,14.90
2019,07,14,07,09,15.00
2019,07,14,07,10,15.00
2019,07,14,07,11,15.10
2019,07,14,07,12,15.10
2019,07,14,07,13,15.20
2019,07,14,07,14,15.20
2019,07,14,07,15,15.20
2019,07,14,07,16,15.20
2019,07,14,07,17,15.30
2019,07,14,07,18,15.30
2019,07,14,07,19,15.30
2019,07,14,07,20,15.30
2019,07,14,07,21,15.30
2019,07,14,07,22,15.40
2019,07,14,07,23,15.40
2019,07,14,07,24,15.40
2019,07,14,07,25,15.40
2019,07,14,07,26,15.40
2019,07,14,07,27,15.40
2019,07,14,07,28,15.50
2019,07,14,07,29,15.50
2019,07,14,07,30,15.50
2019,07,14,07,31,15.50
2019,07,14,07,32,15.60
2019,07,14,07,33,15.60
2019,07,14,07,34,15.60
2019,07,14,07,35,15.60
2019,07,14,07,36,15.70
2019,07,14,07,37,15.70
2019,07,14,07,38,15.80
2019,07,14,07,39,15.80
2019,07,14,07,40,15.80
2019,07,14,07,41,15.80
2019,07,14,07,42,15.80
2019,07,14,07,43,15.80
2019,07,14,07,44,15.80
2019,07,14,07,45,15.90
2019,07,14,07,46,15.90
2019,07,14,07,47,15.90
2019,07,14,07,48,15.90
2019,07,14,07,49,16.00
2019,07,14,07,50,16.10
2019,07,14,07,51,16.10
2019,07,14,07,52,16.10
2019,07,14,07,53,16.10
2019,07,14,07,54,16.20
2019,07,14,07,55,16.20
2019,07,14,07,56,16.20
2019,07,14,07,57,16.30
2019,07,14,07,58,16.30
2019,07,14,07,59,16.30
2019,07,14,08,00,16.40
2019,07,14,08,01,16.40
2019,07,14,08,02,16.40
2019,07,14,08,03,16.40
2019,07,14,08,04,16.40
2019,07,14,08,05,16.40
2019,07,14,08,06,16.40
2019,07,14,08,07,16.40
2019,07,14,08,08,16.40
2019,07,14,08,09,16.50
2019,07,14,08,10,16.60
2019,07,14,08,11,16.60
2019,07,14,08,12,16.70
2019,07,14,08,13,16.70
2019,07,14,08,14,16.70
2019,07,14,08,15,16.70
2019,07,14,08,16,16.80
2019,07,14,08,17,16.80
2019,07,14,08,18,16.80
2019,07,14,08,19,16.80
2019,07,14,08,20,16.80
2019,07,14,08,21,16.90
2019,07,14,08,22,16.90
2019,07,14,08,23,16.90
2019,07,14,08,24,16.90
2019,07,14,08,25,16.90
2019,07,14,08,26,16.90
2019,07,14,08,27,16.90
2019,07,14,08,28,16.90
2019,07,14,08,29,16.90
2019,07,14,08,30,16.90
2019,07,14,08,31,16.90
2019,07,14,08,32,16.90
2019,07,14,08,33,16.90
2019,07,14,08,34,16.90
2019,07,14,08,35,16.90
2019,07,14,08,36,17.00
2019,07,14,08,37,17.00
2019,07,14,08,38,17.10
2019,07,14,08,39,17.20
2019,07,14,08,40,17.20
2019,07,14,08,41,17.30
2019,07,14,08,42,17.40
2019,07,14,08,43,17.50
2019,07,14,08,44,17.50
2019,07,14,08,45,17.50
2019,07,14,08,46,17.60
2019,07,14,08,47,17.60
2019,07,14,08,48,17.60
2019,07,14,08,49,17.60
2019,07,14,08,50,17.60
2019,07,14,08,51,17.60
2019,07,14,08,52,17.60
2019,07,14,08,53,17.60
2019,07,14,08,54,17.60
2019,07,14,08,55,17.60
2019,07,14,08,56,17.60
2019,07,14,08,57,17.60
2019,07,14,08,58,17.70
2019,07,14,08,59,17.80
2019,07,14,09,00,17.90
2019,07,14,09,01,18.00
2019,07,14,09,02,18.10
2019,07,14,09,03,18.20
2019,07,14,09,04,18.30
2019,07,14,09,05,18.40
2019,07,14,09,06,18.50
2019,07,14,09,07,18.50
2019,07,14,09,08,18.60
2019,07,14,09,09,18.70
2019,07,14,09,10,18.80
2019,07,14,09,11,18.90
2019,07,14,09,12,18.90
2019,07,14,09,13,18.90
2019,07,14,09,14,18.80
2019,07,14,09,15,18.70
2019,07,14,09,16,18.70
2019,07,14,09,17,18.70
2019,07,14,09,18,18.70
2019,07,14,09,19,18.70
2019,07,14,09,20,18.80
2019,07,14,09,21,18.90
2019,07,14,09,22,19.00
2019,07,14,09,23,19.10
2019,07,14,09,24,19.10
2019,07,14,09,25,19.20
2019,07,14,09,26,19.30
2019,07,14,09,27,19.30
2019,07,14,09,28,19.40
2019,07,14,09,29,19.40
2019,07,14,09,30,19.50
2019,07,14,09,31,19.50
2019,07,14,09,32,19.50
2019,07,14,09,33,19.60
2019,07,14,09,34,19.60
2019,07,14,09,35,19.60
2019,07,14,09,36,19.70
2019,07,14,09,37,19.70
2019,07,14,09,38,19.80
2019,07,14,09,39,19.80
2019,07,14,09,40,19.80
2019,07,14,09,41,19.90
2019,07,14,09,42,19.90
2019,07,14,09,43,19.90
2019,07,14,09,44,19.90
2019,07,14,09,45,20.10
2019,07,14,09,46,20.10
2019,07,14,09,47,20.20
2019,07,14,09,48,20.20
2019,07,14,09,49,20.30
2019,07,14,09,50,20.40
2019,07,14,09,51,20.40
2019,07,14,09,52,20.30
2019,07,14,09,53,20.20
2019,07,14,09,54,20.10
2019,07,14,09,55,20.10
2019,07,14,09,56,20.10
2019,07,14,09,57,20.10
2019,07,14,09,58,20.10
2019,07,14,09,59,20.10
2019,07,14,10,00,20.10
2019,07,14,10,01,20.10
2019,07,14,10,02,20.10
2019,07,14,10,03,20.10
2019,07,14,10,04,20.00
2019,07,14,10,05,19.90
2019,07,14,10,06,19.90
2019,07,14,10,07,19.90
2019,07,14,10,08,19.90
2019,07,14,10,09,19.90
2019,07,14,10,10,19.90
2019,07,14,10,11,19.90
2019,07,14,10,12,19.90
2019,07,14,10,13,19.90
2019,07,14,10,14,20.00
2019,07,14,10,15,20.10
2019,07,14,10,16,20.20
2019,07,14,10,17,20.20
2019,07,14,10,18,20.20
2019,07,14,10,19,20.20
2019,07,14,10,20,20.30
2019,07,14,10,21,20.20
2019,07,14,10,22,20.20
2019,07,14,10,23,20.20
2019,07,14,10,24,20.20
2019,07,14,10,25,20.10
2019,07,14,10,26,20.20
2019,07,14,10,27,20.20
2019,07,14,10,28,20.20
2019,07,14,10,29,20.20
2019,07,14,10,30,20.20
2019,07,14,10,31,20.20
2019,07,14,10,32,20.30
2019,07,14,10,33,20.30
2019,07,14,10,34,20.30
2019,07,14,10,35,20.40
2019,07,14,10,36,20.40
2019,07,14,10,37,20.50
2019,07,14,10,38,20.60
2019,07,14,10,39,20.50
2019,07,14,10,40,20.50
2019,07,14,10,41,20.50
2019,07,14,10,42,20.40
2019,07,14,10,43,20.40
2019,07,14,10,44,20.40
2019,07,14,10,45,20.30
2019,07,14,10,46,20.30
2019,07,14,10,47,20.30
2019,07,14,10,48,20.40
2019,07,14,10,49,20.40
2019,07,14,10,50,20.40
2019,07,14,10,51,20.50
2019,07,14,10,52,20.50
2019,07,14,10,53,20.50
2019,07,14,10,54,20.60
2019,07,14,10,55,20.60
2019,07,14,10,56,20.60
2019,07,14,10,57,20.60
2019,07,14,10,58,20.70
2019,07,14,10,59,20.70
2019,07,14,11,00,20.60
2019,07,14,11,01,20.70
2019,07,14,11,02,20.70
2019,07,14,11,03,20.80
2019,07,14,11,04,20.90
2019,07,14,11,05,21.00
2019,07,14,11,06,21.00
2019,07,14,11,07,21.00
2019,07,14,11,08,21.00
2019,07,14,11,09,21.00
2019,07,14,11,10,21.10
2019,07,14,11,11,21.10
2019,07,14,11,12,21.20
2019,07,14,11,13,21.20
2019,07,14,11,14,21.30
2019,07,14,11,15,21.40
2019,07,14,11,16,21.30
2019,07,14,11,17,21.30
2019,07,14,11,18,21.30
2019,07,14,11,19,21.30
2019,07,14,11,20,21.30
2019,07,14,11,21,21.40
2019,07,14,11,22,21.50
2019,07,14,11,23,21.60
2019,07,14,11,24,21.60
2019,07,14,11,25,21.60
2019,07,14,11,26,21.50
2019,07,14,11,27,21.30
2019,07,14,11,28,21.30
2019,07,14,11,29,21.30
2019,07,14,11,30,21.30
2019,07,14,11,31,21.30
2019,07,14,11,32,21.30
2019,07,14,11,33,21.40
2019,07,14,11,34,21.40
2019,07,14,11,35,21.40
2019,07,14,11,36,21.40
2019,07,14,11,37,21.40
2019,07,14,11,38,21.40
2019,07,14,11,39,21.50
2019,07,14,11,40,21.60
2019,07,14,11,41,21.60
2019,07,14,11,42,21.60
2019,07,14,11,43,21.70
2019,07,14,11,44,21.70
2019,07,14,11,45,21.80
2019,07,14,11,46,21.80
2019,07,14,11,47,21.70
2019,07,14,11,48,21.70
2019,07,14,11,49,21.70
2019,07,14,11,50,21.70
2019,07,14,11,51,21.70
2019,07,14,11,52,21.70
2019,07,14,11,53,21.70
2019,07,14,11,54,21.70
2019,07,14,11,55,21.80
2019,07,14,11,56,21.90
2019,07,14,11,57,22.00
2019,07,14,11,58,22.10
2019,07,14,11,59,22.20
2019,07,14,12,00,22.20
2019,07,14,12,01,22.20
2019,07,14,12,02,22.20
2019,07,14,12,03,22.20
2019,07,14,12,04,22.20
2019,07,14,12,05,22.30
2019,07,14,12,06,22.40
2019,07,14,12,07,22.40
2019,07,14,12,08,22.40
2019,07,14,12,09,22.40
2019,07,14,12,10,22.30
2019,07,14,12,11,22.20
2019,07,14,12,12,22.10
2019,07,14,12,13,22.20
2019,07,14,12,14,22.30
2019,07,14,12,15,22.30
2019,07,14,12,16,22.30
2019,07,14,12,17,22.30
2019,07,14,12,18,22.30
2019,07,14,12,19,22.40
2019,07,14,12,20,22.50
2019,07,14,12,21,22.50
2019,07,14,12,22,22.40
2019,07,14,12,23,22.50
2019,07,14,12,24,22.50
2019,07,14,12,25,22.40
2019,07,14,12,26,22.50
2019,07,14,12,27,22.60
2019,07,14,12,28,22.60
2019,07,14,12,29,22.80
2019,07,14,12,30,22.90
2019,07,14,12,31,22.90
2019,07,14,12,32,22.90
2019,07,14,12,33,22.90
2019,07,14,12,34,22.90
2019,07,14,12,35,22.90
2019,07,14,12,36,22.90
2019,07,14,12,37,22.90
2019,07,14,12,38,22.70
2019,07,14,12,39,22.50
2019,07,14,12,40,22.30
2019,07,14,12,41,22.20
2019,07,14,12,42,22.30
2019,07,14,12,43,22.30
2019,07,14,12,44,22.40
2019,07,14,12,45,22.40
2019,07,14,12,46,22.40
2019,07,14,12,47,22.30
2019,07,14,12,48,22.20
2019,07,14,12,49,22.20
2019,07,14,12,50,22.20
2019,07,14,12,51,22.40
2019,07,14,12,52,22.50
2019,07,14,12,53,22.60
2019,07,14,12,54,22.80
2019,07,14,12,55,22.90
2019,07,14,12,56,22.90
2019,07,14,12,57,23.00
2019,07,14,12,58,23.10
2019,07,14,12,59,23.20
2019,07,14,13,00,23.20
2019,07,14,13,01,23.30
2019,07,14,13,02,23.30
2019,07,14,13,03,23.20
2019,07,14,13,04,23.20
2019,07,14,13,05,23.10
2019,07,14,13,06,22.90
2019,07,14,13,07,22.80
2019,07,14,13,08,22.70
2019,07,14,13,09,22.60
2019,07,14,13,10,22.40
2019,07,14,13,11,22.40
2019,07,14,13,12,22.40
2019,07,14,13,13,22.40
2019,07,14,13,14,22.50
2019,07,14,13,15,22.50
2019,07,14,13,16,22.50
2019,07,14,13,17,22.60
2019,07,14,13,18,22.60
2019,07,14,13,19,22.60
2019,07,14,13,20,22.50
2019,07,14,13,21,22.60
2019,07,14,13,22,22.60
2019,07,14,13,23,22.70
2019,07,14,13,24,22.70
2019,07,14,13,25,22.80
2019,07,14,13,26,22.80
2019,07,14,13,27,22.80
2019,07,14,13,28,22.70
2019,07,14,13,29,22.60
2019,07,14,13,30,22.50
2019,07,14,13,31,22.40
2019,07,14,13,32,22.40
2019,07,14,13,33,22.40
2019,07,14,13,34,22.30
2019,07,14,13,35,22.20
2019,07,14,13,36,22.10
2019,07,14,13,37,22.10
2019,07,14,13,38,22.20
2019,07,14,13,39,22.30
2019,07,14,13,40,22.40
2019,07,14,13,41,22.30
2019,07,14,13,42,22.20
2019,07,14,13,43,22.10
2019,07,14,13,44,22.00
2019,07,14,13,45,21.90
2019,07,14,13,46,21.70
2019,07,14,13,47,21.80
2019,07,14,13,48,22.00
2019,07,14,13,49,22.10
2019,07,14,13,50,21.90
2019,07,14,13,51,21.80
2019,07,14,13,52,21.70
2019,07,14,13,53,21.70
2019,07,14,13,54,21.70
2019,07,14,13,55,21.70
2019,07,14,13,56,21.70
2019,07,14,13,57,21.70
2019,07,14,13,58,21.70
2019,07,14,13,59,21.70
2019,07,14,14,00,21.50
2019,07,14,14,01,21.40
2019,07,14,14,02,21.40
2019,07,14,14,03,21.30
2019,07,14,14,04,21.30
2019,07,14,14,05,21.40
2019,07,14,14,06,21.50
2019,07,14,14,07,21.60
2019,07,14,14,08,21.80
2019,07,14,14,09,21.90
2019,07,14,14,10,22.00
2019,07,14,14,11,22.00
2019,07,14,14,12,21.90
2019,07,14,14,13,21.80
2019,07,14,14,14,21.70
2019,07,14,14,15,21.60
2019,07,14,14,16,21.70
2019,07,14,14,17,21.70
2019,07,14,14,18,21.70
2019,07,14,14,19,21.60
2019,07,14,14,20,21.60
2019,07,14,14,21,21.60
2019,07,14,14,22,21.60
2019,07,14,14,23,21.60
2019,07,14,14,24,21.60
2019,07,14,14,25,21.40
2019,07,14,14,26,21.20
2019,07,14,14,27,21.00
2019,07,14,14,28,20.80
2019,07,14,14,29,20.70
2019,07,14,14,30,20.60
2019,07,14,14,31,20.50
2019,07,14,14,32,20.50
2019,07,14,14,33,20.50
2019,07,14,14,34,20.50
2019,07,14,14,35,20.50
2019,07,14,14,36,20.50
2019,07,14,14,37,20.40
2019,07,14,14,38,20.50
2019,07,14,14,39,20.50
2019,07,14,14,40,20.50
2019,07,14,14,41,20.50
2019,07,14,14,42,20.40
2019,07,14,14,43,20.40
2019,07,14,14,44,20.30
2019,07,14,14,45,20.50
2019,07,14,14,46,20.50
2019,07,14,14,47,20.60
2019,07,14,14,48,20.60
2019,07,14,14,49,20.70
2019,07,14,14,50,20.70
2019,07,14,14,51,20.70
2019,07,14,14,52,20.70
2019,07,14,14,53,20.70
2019,07,14,14,54,20.60
2019,07,14,14,55,20.50
2019,07,14,14,56,20.60
2019,07,14,14,57,20.60
2019,07,14,14,58,20.70
2019,07,14,14,59,20.70
2019,07,14,15,00,20.80
2019,07,14,15,01,20.80
2019,07,14,15,02,20.80
2019,07,14,15,03,20.80
2019,07,14,15,04,20.70
2019,07,14,15,05,20.60
2019,07,14,15,06,20.50
2019,07,14,15,07,20.40
2019,07,14,15,08,20.30
2019,07,14,15,09,20.30
2019,07,14,15,10,20.30
2019,07,14,15,11,20.40
2019,07,14,15,12,20.40
2019,07,14,15,13,20.30
2019,07,14,15,14,20.40
2019,07,14,15,15,20.50
2019,07,14,15,16,20.40
2019,07,14,15,17,20.40
2019,07,14,15,18,20.50
2019,07,14,15,19,20.50
2019,07,14,15,20,20.60
2019,07,14,15,21,20.60
2019,07,14,15,22,20.50
2019,07,14,15,23,20.50
2019,07,14,15,24,20.30
2019,07,14,15,25,20.20
2019,07,14,15,26,20.10
2019,07,14,15,27,20.10
2019,07,14,15,28,20.10
2019,07,14,15,29,20.10
2019,07,14,15,30,20.10
2019,07,14,15,31,20.20
2019,07,14,15,32,20.20
2019,07,14,15,33,20.20
2019,07,14,15,34,20.30
2019,07,14,15,35,20.20
2019,07,14,15,36,20.00
2019,07,14,15,37,19.90
2019,07,14,15,38,19.70
2019,07,14,15,39,19.60
2019,07,14,15,40,19.60
2019,07,14,15,41,19.60
2019,07,14,15,42,19.50
2019,07,14,15,43,19.50
2019,07,14,15,44,19.50
2019,07,14,15,45,19.50
2019,07,14,15,46,19.40
2019,07,14,15,47,19.40
2019,07,14,15,48,19.40
2019,07,14,15,49,19.30
2019,07,14,15,50,19.10
2019,07,14,15,51,19.10
2019,07,14,15,52,19.10
2019,07,14,15,53,19.10
2019,07,14,15,54,19.10
2019,07,14,15,55,19.00
2019,07,14,15,56,18.90
2019,07,14,15,57,18.90
2019,07,14,15,58,18.90
2019,07,14,15,59,18.90
2019,07,14,16,00,18.90
2019,07,14,16,01,18.90
2019,07,14,16,02,19.10
2019,07,14,16,03,19.10
2019,07,14,16,04,19.30
2019,07,14,16,05,19.30
2019,07,14,16,06,19.20
2019,07,14,16,07,19.10
2019,07,14,16,08,19.10
2019,07,14,16,09,19.00
2019,07,14,16,10,18.90
2019,07,14,16,11,18.90
2019,07,14,16,12,18.90
2019,07,14,16,13,18.90
2019,07,14,16,14,18.70
2019,07,14,16,15,18.70
2019,07,14,16,16,18.70
2019,07,14,16,17,18.70
2019,07,14,16,18,18.70
2019,07,14,16,19,18.60
2019,07,14,16,20,18.50
2019,07,14,16,21,18.50
2019,07,14,16,22,18.60
2019,07,14,16,23,18.60
2019,07,14,16,24,18.60
2019,07,14,16,25,18.60
2019,07,14,16,26,18.70
2019,07,14,16,27,18.70
2019,07,14,16,28,18.80
2019,07,14,16,29,18.90
2019,07,14,16,30,19.00
2019,07,14,16,31,19.10
2019,07,14,16,32,19.20
2019,07,14,16,33,19.40
2019,07,14,16,34,19.40
2019,07,14,16,35,19.30
2019,07,14,16,36,19.20
2019,07,14,16,37,19.10
2019,07,14,16,38,19.10
2019,07,14,16,39,19.10
2019,07,14,16,40,19.10
2019,07,14,16,41,19.10
2019,07,14,16,42,19.10
2019,07,14,16,43,19.00
2019,07,14,16,44,18.90
2019,07,14,16,45,18.80
2019,07,14,16,46,18.80
2019,07,14,16,47,18.70
2019,07,14,16,48,18.70
2019,07,14,16,49,18.80
2019,07,14,16,50,18.90
2019,07,14,16,51,18.90
2019,07,14,16,52,18.90
2019,07,14,16,53,18.90
2019,07,14,16,54,19.00
2019,07,14,16,55,19.10
2019,07,14,16,56,19.10
2019,07,14,16,57,19.20
2019,07,14,16,58,19.30
2019,07,14,16,59,19.30
2019,07,14,17,00,19.40
2019,07,14,17,01,19.40
2019,07,14,17,02,19.50
2019,07,14,17,03,19.50
2019,07,14,17,04,19.50
2019,07,14,17,05,19.50
2019,07,14,17,06,19.50
2019,07,14,17,07,19.50
2019,07,14,17,08,19.60
2019,07,14,17,09,19.70
2019,07,14,17,10,19.80
2019,07,14,17,11,19.80
2019,07,14,17,12,19.90
2019,07,14,17,13,20.00
2019,07,14,17,14,20.10
2019,07,14,17,15,20.20
2019,07,14,17,16,20.20
2019,07,14,17,17,20.20
2019,07,14,17,18,20.20
2019,07,14,17,19,20.30